• In Hungary
  • List of Countries
  • For 7 days
  • Water Temperature
  • Satellite Maps
  • Weather Map
  • News
  • Weather Widgets
  • user-avatar
    Login

    Hourly Weather Komarkov

    Today, 22 May, Tuesday

    Time Temperature Precipitation Wind Pressure Humidity
    00:00 +18°C° 0 mm 0 mps 757 mmHg 84%
    01:00 +17°C° 0 mm 0 mps 757 mmHg 85%
    02:00 +17°C° 0 mm 0 mps 757 mmHg 86%
    03:00 +19°C° 0 mm 1 mps 757 mmHg 86%
    04:00 +19°C° 0 mm 1 mps 757 mmHg 84%
    05:00 +20°C° 0 mm 1 mps 757 mmHg 83%
    06:00 +20°C° 0 mm 1 mps 757 mmHg 81%
    07:00 +22°C° 0 mm 1 mps 757 mmHg 74%
    08:00 +24°C° 0 mm 1 mps 758 mmHg 68%
    09:00 +26°C° 0 mm 1 mps 758 mmHg 60%
    10:00 +27°C° 0 mm 1 mps 758 mmHg 56%
    11:00 +28°C° 0 mm 1 mps 758 mmHg 52%
    12:00 +29°C° 0 mm 1 mps 758 mmHg 48%
    13:00 +29°C° 0 mm 1 mps 758 mmHg 48%
    14:00 +30°C° 0 mm 2 mps 758 mmHg 48%
    15:00 +29°C° 0 mm 3 mps 758 mmHg 53%
    16:00 +29°C° 0.1 mm 3 mps 758 mmHg 55%
    17:00 +29°C° 0.1 mm 2 mps 758 mmHg 58%
    18:00 +29°C° 0.1 mm 2 mps 758 mmHg 61%
    19:00 +27°C° 0 mm 2 mps 758 mmHg 65%
    20:00 +25°C° 0 mm 2 mps 758 mmHg 70%
    21:00 +24°C° 0 mm 3 mps 758 mmHg 74%
    22:00 +22°C° 1 mm 3 mps 758 mmHg 77%
    23:00 +21°C° 1 mm 3 mps 758 mmHg 79%

    Tomorrow, 23 May, Wednesday

    Time Temperature Precipitation Wind Pressure Humidity
    00:00 +21°C° 1 mm 3 mps 758 mmHg 82%
    01:00 +20°C° 0.7 mm 3 mps 757 mmHg 82%
    02:00 +20°C° 0.7 mm 3 mps 757 mmHg 82%
    03:00 +19°C° 0.7 mm 3 mps 757 mmHg 83%
    04:00 +20°C° 0.7 mm 3 mps 757 mmHg 83%
    05:00 +20°C° 0.7 mm 3 mps 757 mmHg 84%
    06:00 +20°C° 0.7 mm 3 mps 758 mmHg 84%
    07:00 +21°C° 0.1 mm 3 mps 758 mmHg 78%
    08:00 +24°C° 0.1 mm 3 mps 758 mmHg 72%
    09:00 +25°C° 0.1 mm 4 mps 758 mmHg 66%
    10:00 +27°C° 0 mm 5 mps 758 mmHg 58%
    11:00 +28°C° 0 mm 5 mps 757 mmHg 50%
    12:00 +30°C° 0 mm 6 mps 757 mmHg 42%
    13:00 +30°C° 0 mm 6 mps 757 mmHg 41%
    14:00 +32°C° 0 mm 6 mps 756 mmHg 40%
    15:00 +33°C° 0 mm 5 mps 756 mmHg 39%
    16:00 +32°C° 0 mm 4 mps 756 mmHg 42%
    17:00 +31°C° 0 mm 3 mps 755 mmHg 46%
    18:00 +30°C° 0 mm 1 mps 755 mmHg 49%
    19:00 +28°C° 0 mm 2 mps 755 mmHg 51%
    20:00 +26°C° 0 mm 2 mps 755 mmHg 53%
    21:00 +25°C° 0 mm 3 mps 755 mmHg 55%
    22:00 +24°C° 0 mm 3 mps 755 mmHg 53%
    23:00 +24°C° 0 mm 3 mps 755 mmHg 50%

    Day after tomorrow, 24 May, Thursday

    Time Temperature Precipitation Wind Pressure Humidity
    00:00 +22°C° 0 mm 3 mps 755 mmHg 48%
    01:00 +22°C° 0 mm 3 mps 754 mmHg 50%
    02:00 +21°C° 0 mm 3 mps 754 mmHg 51%
    03:00 +21°C° 0 mm 3 mps 754 mmHg 53%
    04:00 +21°C° 0 mm 2 mps 754 mmHg 57%
    05:00 +21°C° 0 mm 2 mps 754 mmHg 60%
    06:00 +21°C° 0 mm 1 mps 753 mmHg 64%
    07:00 +23°C° 0 mm 1 mps 753 mmHg 61%
    08:00 +25°C° 0 mm 1 mps 753 mmHg 58%
    09:00 +26°C° 0 mm 1 mps 753 mmHg 55%
    10:00 +27°C° 0.1 mm 1 mps 753 mmHg 52%
    11:00 +29°C° 0.1 mm 2 mps 753 mmHg 48%
    12:00 +30°C° 0.1 mm 2 mps 753 mmHg 45%
    13:00 +30°C° 0 mm 2 mps 752 mmHg 45%
    14:00 +30°C° 0 mm 3 mps 752 mmHg 46%
    15:00 +31°C° 0 mm 3 mps 752 mmHg 47%
    16:00 +30°C° 0 mm 3 mps 751 mmHg 51%
    17:00 +30°C° 0 mm 3 mps 751 mmHg 56%
    18:00 +29°C° 0 mm 2 mps 751 mmHg 60%
    19:00 +27°C° 0 mm 2 mps 751 mmHg 64%
    20:00 +26°C° 0 mm 2 mps 751 mmHg 68%
    21:00 +24°C° 0 mm 2 mps 752 mmHg 72%
    22:00 +24°C° 0 mm 2 mps 752 mmHg 75%
    23:00 +23°C° 0 mm 2 mps 752 mmHg 77%

    25 May, Friday

    Time Temperature Precipitation Wind Pressure Humidity
    00:00 +21°C° 0 mm 2 mps 751 mmHg 79%
    01:00 +21°C° 0 mm 2 mps 751 mmHg 81%
    02:00 +20°C° 0 mm 2 mps 751 mmHg 83%
    03:00 +20°C° 0 mm 2 mps 751 mmHg 85%
    04:00 +20°C° 0 mm 2 mps 751 mmHg 84%
    05:00 +21°C° 0 mm 2 mps 751 mmHg 84%
    06:00 +21°C° 0 mm 2 mps 751 mmHg 83%
    07:00 +24°C° 0 mm 2 mps 751 mmHg 77%
    08:00 +25°C° 0 mm 2 mps 751 mmHg 71%
    09:00 +27°C° 0 mm 3 mps 751 mmHg 64%
    10:00 +28°C° 0 mm 3 mps 751 mmHg 59%
    11:00 +29°C° 0 mm 3 mps 751 mmHg 53%
    12:00 +30°C° 0 mm 3 mps 751 mmHg 47%
    13:00 +30°C° 0 mm 4 mps 751 mmHg 46%
    14:00 +32°C° 0 mm 4 mps 751 mmHg 45%
    15:00 +32°C° 0 mm 4 mps 750 mmHg 44%
    16:00 +30°C° 0 mm 4 mps 751 mmHg 50%
    17:00 +29°C° 0 mm 4 mps 751 mmHg 56%
    18:00 +29°C° 0 mm 4 mps 751 mmHg 61%
    19:00 +27°C° 0 mm 5 mps 751 mmHg 64%
    20:00 +24°C° 0 mm 6 mps 751 mmHg 68%
    21:00 +23°C° 0 mm 7 mps 752 mmHg 71%
    22:00 +22°C° 0 mm 8 mps 752 mmHg 71%
    23:00 +21°C° 0 mm 9 mps 753 mmHg 72%

    26 May, Saturday

    Time Temperature Precipitation Wind Pressure Humidity
    00:00 +19°C° 0 mm 9 mps 754 mmHg 72%
    01:00 +18°C° 0 mm 9 mps 754 mmHg 66%
    02:00 +17°C° 0 mm 9 mps 755 mmHg 60%
    03:00 +16°C° 0 mm 9 mps 756 mmHg 54%
    04:00 +15°C° 0 mm 9 mps 756 mmHg 53%
    05:00 +13°C° 0 mm 9 mps 757 mmHg 53%
    06:00 +12°C° 0 mm 9 mps 758 mmHg 52%
    07:00 +12°C° 0 mm 9 mps 759 mmHg 52%
    08:00 +13°C° 0 mm 9 mps 759 mmHg 52%
    09:00 +13°C° 0 mm 9 mps 760 mmHg 52%
    10:00 +15°C° 0 mm 9 mps 761 mmHg 49%
    11:00 +16°C° 0 mm 9 mps 761 mmHg 46%
    12:00 +18°C° 0 mm 9 mps 761 mmHg 43%
    13:00 +18°C° 0 mm 9 mps 761 mmHg 42%
    14:00 +18°C° 0 mm 9 mps 762 mmHg 41%
    15:00 +18°C° 0 mm 9 mps 762 mmHg 40%
    16:00 +18°C° 0 mm 8 mps 762 mmHg 42%
    17:00 +17°C° 0 mm 7 mps 762 mmHg 44%
    18:00 +17°C° 0 mm 7 mps 763 mmHg 47%
    19:00 +15°C° 0 mm 6 mps 763 mmHg 47%
    20:00 +14°C° 0 mm 6 mps 764 mmHg 47%
    21:00 +13°C° 0 mm 6 mps 764 mmHg 47%
    22:00 +11°C° 0 mm 6 mps 764 mmHg 47%
    23:00 +11°C° 0 mm 6 mps 765 mmHg 47%

    27 May, Sunday

    Time Temperature Precipitation Wind Pressure Humidity
    00:00 +10°C° 0 mm 6 mps 765 mmHg 47%
    01:00 +10°C° 0 mm 6 mps 765 mmHg 48%
    02:00 +9°C° 0 mm 6 mps 765 mmHg 49%
    03:00 +9°C° 0 mm 6 mps 765 mmHg 50%
    04:00 +9°C° 0 mm 6 mps 765 mmHg 52%
    05:00 +9°C° 0 mm 6 mps 765 mmHg 54%
    06:00 +9°C° 0 mm 6 mps 765 mmHg 57%
    07:00 +10°C° 0 mm 7 mps 766 mmHg 52%
    08:00 +12°C° 0 mm 7 mps 766 mmHg 48%
    09:00 +15°C° 0 mm 8 mps 766 mmHg 44%
    10:00 +16°C° 0 mm 8 mps 765 mmHg 42%
    11:00 +17°C° 0 mm 8 mps 765 mmHg 40%
    12:00 +18°C° 0 mm 8 mps 765 mmHg 38%
    13:00 +20°C° 0 mm 7 mps 764 mmHg 38%
    14:00 +20°C° 0 mm 7 mps 764 mmHg 37%
    15:00 +21°C° 0 mm 7 mps 763 mmHg 36%
    16:00 +20°C° 0 mm 6 mps 763 mmHg 39%
    17:00 +20°C° 0 mm 5 mps 763 mmHg 42%
    18:00 +20°C° 0 mm 4 mps 763 mmHg 45%
    19:00 +18°C° 0 mm 4 mps 763 mmHg 46%
    20:00 +15°C° 0 mm 4 mps 763 mmHg 47%
    21:00 +13°C° 0 mm 3 mps 763 mmHg 47%
    22:00 +13°C° 0 mm 3 mps 762 mmHg 46%
    23:00 +12°C° 0 mm 3 mps 762 mmHg 44%
    Show more